When you browse on this site, cookies collect data to enhance your experience and personalize the content and advertising you see.
Visit our Privacy Policy to learn more. By continuing to use the site, you agree to this use of cookies and data.
  • In Hungary
  • List of Countries
  • For 7 days
  • Water Temperature
  • Weather Map
  • News
  • Weather Widgets
  • user-avatar
    Login

    Hourly Weather Ikonki

    Today, 28 January, Tuesday

    Time Temperature Precipitation Wind Pressure Humidity
    00:00 -2°C° 0.5 mm 3 mps 744 mmHg 97%
    01:00 -3°C° 0.7 mm 4 mps 744 mmHg 97%
    02:00 -3°C° 0.7 mm 4 mps 744 mmHg 97%
    03:00 -4°C° 0 mm 3 mps 744 mmHg 97%
    04:00 -4°C° 0.4 mm 3 mps 744 mmHg 97%
    05:00 -4°C° 0.4 mm 3 mps 743 mmHg 97%
    06:00 -4°C° 0.4 mm 4 mps 743 mmHg 97%
    07:00 -4°C° 0.2 mm 3 mps 743 mmHg 97%
    08:00 -4°C° 0.2 mm 3 mps 743 mmHg 97%
    09:00 -4°C° 0 mm 3 mps 743 mmHg 96%
    10:00 -4°C° 0.3 mm 3 mps 743 mmHg 96%
    11:00 -3°C° 0.3 mm 4 mps 743 mmHg 96%
    12:00 -3°C° 0.3 mm 4 mps 743 mmHg 96%
    13:00 -3°C° 0.2 mm 4 mps 742 mmHg 96%
    14:00 -3°C° 0.2 mm 4 mps 742 mmHg 96%
    15:00 -3°C° 0.2 mm 4 mps 742 mmHg 95%
    16:00 -2°C° 0 mm 3 mps 742 mmHg 96%
    17:00 -2°C° 0 mm 3 mps 742 mmHg 96%
    18:00 -2°C° 0 mm 3 mps 741 mmHg 96%
    19:00 -2°C° 0 mm 3 mps 742 mmHg 96%
    20:00 -2°C° 0 mm 3 mps 742 mmHg 96%
    21:00 -2°C° 0 mm 3 mps 742 mmHg 95%
    22:00 -4°C° 0 mm 3 mps 742 mmHg 96%
    23:00 -5°C° 0 mm 3 mps 741 mmHg 96%

    Tomorrow, 29 January, Wednesday

    Time Temperature Precipitation Wind Pressure Humidity
    00:00 -5°C° 0 mm 3 mps 741 mmHg 96%
    01:00 -5°C° 0 mm 3 mps 741 mmHg 96%
    02:00 -4°C° 0 mm 3 mps 741 mmHg 97%
    03:00 -2°C° 0 mm 3 mps 741 mmHg 97%
    04:00 -1°C° 0 mm 3 mps 741 mmHg 97%
    05:00 -1°C° 0 mm 3 mps 741 mmHg 97%
    06:00 -1°C° 0 mm 3 mps 741 mmHg 97%
    07:00 -1°C° 0.1 mm 3 mps 741 mmHg 97%
    08:00 -1°C° 0.1 mm 3 mps 741 mmHg 97%
    09:00 -1°C° 0.1 mm 3 mps 741 mmHg 97%
    10:00 -1°C° 0 mm 3 mps 740 mmHg 97%
    11:00 -2°C° 0 mm 4 mps 740 mmHg 97%
    12:00 -2°C° 0 mm 4 mps 740 mmHg 97%
    13:00 -2°C° 0 mm 4 mps 740 mmHg 98%
    14:00 -1°C° 0 mm 3 mps 739 mmHg 99%
    15:00 0°C° 0 mm 3 mps 739 mmHg 99%
    16:00 0°C° 0 mm 3 mps 739 mmHg 99%
    17:00 -1°C° 0 mm 4 mps 738 mmHg 99%
    18:00 -1°C° 0 mm 4 mps 738 mmHg 99%
    19:00 -1°C° 0.1 mm 4 mps 738 mmHg 99%
    20:00 -1°C° 0.1 mm 4 mps 738 mmHg 99%
    21:00 -1°C° 0.1 mm 4 mps 737 mmHg 99%
    22:00 -1°C° 0 mm 4 mps 737 mmHg 99%
    23:00 -1°C° 0 mm 4 mps 736 mmHg 99%

    Day after tomorrow, 30 January, Thursday

    Time Temperature Precipitation Wind Pressure Humidity
    00:00 -1°C° 0 mm 4 mps 736 mmHg 99%
    01:00 -1°C° 0.2 mm 4 mps 735 mmHg 99%
    02:00 0°C° 0.2 mm 5 mps 735 mmHg 99%
    03:00 0°C° 0.2 mm 5 mps 734 mmHg 98%
    04:00 0°C° 0.3 mm 5 mps 734 mmHg 99%
    05:00 0°C° 0.3 mm 5 mps 733 mmHg 99%
    06:00 -1°C° 0.3 mm 6 mps 733 mmHg 99%
    07:00 -1°C° 0.6 mm 6 mps 733 mmHg 99%
    08:00 -1°C° 0.6 mm 6 mps 733 mmHg 98%
    09:00 -1°C° 0.6 mm 6 mps 733 mmHg 98%
    10:00 -1°C° 0.6 mm 5 mps 733 mmHg 97%
    11:00 -1°C° 0.6 mm 5 mps 733 mmHg 95%
    12:00 -2°C° 0.6 mm 5 mps 733 mmHg 94%
    13:00 -2°C° 0 mm 5 mps 733 mmHg 91%
    14:00 -2°C° 0 mm 5 mps 734 mmHg 89%
    15:00 -2°C° 0 mm 5 mps 734 mmHg 86%
    16:00 -2°C° 0 mm 4 mps 734 mmHg 89%
    17:00 -2°C° 0 mm 4 mps 734 mmHg 92%
    18:00 -3°C° 0 mm 4 mps 734 mmHg 94%
    19:00 -4°C° 0 mm 5 mps 734 mmHg 93%
    20:00 -2°C° 0 mm 5 mps 734 mmHg 92%
    21:00 -2°C° 0 mm 5 mps 734 mmHg 90%
    22:00 -3°C° 0.1 mm 6 mps 733 mmHg 92%
    23:00 -3°C° 0.1 mm 6 mps 733 mmHg 93%

    31 January, Friday

    Time Temperature Precipitation Wind Pressure Humidity
    00:00 -3°C° 0.1 mm 6 mps 732 mmHg 94%
    01:00 -3°C° 0.4 mm 6 mps 732 mmHg 95%
    02:00 -3°C° 0.4 mm 7 mps 731 mmHg 96%
    03:00 -3°C° 0.4 mm 7 mps 731 mmHg 96%
    04:00 -3°C° 0.5 mm 6 mps 731 mmHg 96%
    05:00 -3°C° 0.5 mm 6 mps 730 mmHg 96%
    06:00 -2°C° 0.5 mm 5 mps 730 mmHg 95%
    07:00 -3°C° 0.2 mm 4 mps 730 mmHg 96%
    08:00 -3°C° 0.2 mm 4 mps 730 mmHg 96%
    09:00 -2°C° 0.2 mm 3 mps 730 mmHg 97%
    10:00 -3°C° 0.2 mm 4 mps 731 mmHg 96%
    11:00 -4°C° 0.2 mm 5 mps 731 mmHg 96%
    12:00 -2°C° 0.2 mm 5 mps 731 mmHg 95%
    13:00 -2°C° 0.1 mm 5 mps 731 mmHg 93%
    14:00 -2°C° 0.1 mm 5 mps 732 mmHg 91%
    15:00 -3°C° 0.1 mm 6 mps 732 mmHg 90%
    16:00 -4°C° 0 mm 5 mps 732 mmHg 91%
    17:00 -4°C° 0 mm 4 mps 733 mmHg 92%
    18:00 -4°C° 0 mm 3 mps 733 mmHg 93%
    19:00 -4°C° 0.1 mm 3 mps 733 mmHg 93%
    20:00 -4°C° 0.1 mm 4 mps 734 mmHg 93%
    21:00 -3°C° 0.1 mm 4 mps 734 mmHg 93%
    22:00 -3°C° 0.1 mm 4 mps 734 mmHg 94%
    23:00 -2°C° 0.1 mm 3 mps 734 mmHg 95%

    1 February, Saturday

    Time Temperature Precipitation Wind Pressure Humidity
    00:00 -2°C° 0.1 mm 3 mps 734 mmHg 97%
    01:00 -2°C° 0.5 mm 3 mps 734 mmHg 97%
    02:00 -2°C° 0.5 mm 3 mps 734 mmHg 97%
    03:00 -1°C° 0.5 mm 3 mps 734 mmHg 98%
    04:00 -1°C° 0.5 mm 3 mps 734 mmHg 98%
    05:00 -1°C° 0.5 mm 3 mps 734 mmHg 98%
    06:00 -1°C° 0.5 mm 3 mps 734 mmHg 98%
    07:00 -1°C° 0.2 mm 3 mps 734 mmHg 98%
    08:00 +1°C° 0.2 mm 2 mps 734 mmHg 98%
    09:00 +1°C° 0.2 mm 2 mps 734 mmHg 99%
    10:00 +1°C° 0.2 mm 2 mps 734 mmHg 99%
    11:00 +1°C° 0.2 mm 2 mps 734 mmHg 99%
    12:00 +1°C° 0.2 mm 2 mps 735 mmHg 99%
    13:00 0°C° 0.2 mm 3 mps 735 mmHg 99%
    14:00 0°C° 0.2 mm 3 mps 734 mmHg 99%
    15:00 0°C° 0.2 mm 3 mps 734 mmHg 99%
    16:00 0°C° 0.1 mm 3 mps 734 mmHg 99%
    17:00 0°C° 0.1 mm 3 mps 734 mmHg 99%
    18:00 0°C° 0.1 mm 3 mps 734 mmHg 98%
    19:00 0°C° 0 mm 3 mps 734 mmHg 98%
    20:00 0°C° 0 mm 3 mps 734 mmHg 98%
    21:00 0°C° 0 mm 3 mps 734 mmHg 98%
    22:00 0°C° 0.1 mm 3 mps 734 mmHg 98%
    23:00 0°C° 0.1 mm 3 mps 734 mmHg 98%

    2 February, Sunday

    Time Temperature Precipitation Wind Pressure Humidity
    00:00 0°C° 0.1 mm 3 mps 734 mmHg 98%
    01:00 0°C° 0.3 mm 3 mps 734 mmHg 98%
    02:00 0°C° 0.3 mm 3 mps 734 mmHg 98%
    03:00 0°C° 0.3 mm 3 mps 734 mmHg 99%
    04:00 0°C° 0.1 mm 3 mps 734 mmHg 99%
    05:00 0°C° 0.1 mm 3 mps 734 mmHg 99%
    06:00 0°C° 0.1 mm 3 mps 734 mmHg 99%
    07:00 0°C° 0.1 mm 3 mps 733 mmHg 99%
    08:00 0°C° 0.1 mm 3 mps 733 mmHg 99%
    09:00 0°C° 0.1 mm 3 mps 733 mmHg 99%
    10:00 0°C° 0.1 mm 3 mps 733 mmHg 99%
    11:00 0°C° 0.1 mm 3 mps 734 mmHg 99%
    12:00 +1°C° 0.1 mm 2 mps 734 mmHg 100%
    13:00 0°C° 0 mm 3 mps 733 mmHg 99%
    14:00 0°C° 0 mm 3 mps 733 mmHg 99%
    15:00 0°C° 0 mm 3 mps 733 mmHg 99%
    16:00 +1°C° 0 mm 3 mps 733 mmHg 99%
    17:00 +1°C° 0 mm 3 mps 732 mmHg 99%
    18:00 0°C° 0 mm 4 mps 732 mmHg 99%
    19:00 0°C° 0.8 mm 4 mps 732 mmHg 99%
    20:00 0°C° 0.8 mm 4 mps 731 mmHg 99%
    21:00 0°C° 0.8 mm 4 mps 731 mmHg 99%
    22:00 0°C° 0.8 mm 4 mps 731 mmHg 99%
    23:00 0°C° 0.8 mm 4 mps 730 mmHg 99%
    Show more